Regional Weather Roundup
Issued by NWS

Home | Current Version | Previous Version | Text Only | Print | Product List | Glossary On
Versions: 1 2 3 4 5 6 7 8 9 10 11 12 13 14 15 16 17 18 19 20 21 22 23 24 25 26 27 28 29 30 31 32 33 34 35 36 37 38 39 40 41 42 43 44 45 46 47 48 49 50
000
ASUS43 KBIS 191020
RWRND

NORTH DAKOTA REGIONAL WEATHER ROUNDUP
NATIONAL WEATHER SERVICE BISMARCK ND
500 AM CDT FRI SEP 19 2014

NOTE: "FAIR" INDICATES FEW OR NO CLOUDS BELOW 12,000 FEET WITH NO
SIGNIFICANT WEATHER AND/OR OBSTRUCTIONS TO VISIBILITY.


NDZ001>003-009>011-017-191100-
NORTHWEST NORTH DAKOTA

CITY           SKY/WX    TMP DP  RH WIND       PRES   REMARKS
WILLISTON      CLOUDY    64  52  64 W12       29.56S
MINOT          CLOUDY    65  55  70 SW10      29.51F
MINOT AFB      CLOUDY    64  55  72 W7        29.51F
$$

NDZ018>021-031>035-040>046-191100-
SOUTHWEST NORTH DAKOTA

CITY           SKY/WX    TMP DP  RH WIND       PRES   REMARKS
BISMARCK       CLOUDY    64  62  93 SE12      29.60F
DICKINSON      CLOUDY    67  53  61 W15       29.63R
GARRISON         N/A     62  58  86 S7        29.56S
HETTINGER ARPT CLOUDY    67  55  65 W18       29.72R
$$

NDZ004>008-012>016-024-026-027-054-191100-
NORTHEAST NORTH DAKOTA

CITY           SKY/WX    TMP DP  RH WIND       PRES   REMARKS
GRAND FORKS    CLOUDY    64  57  78 S18G26    29.60S
GRND FRKS AFB  CLOUDY    65  60  81 SW22G31   29.58S
DEVILS LAKE    CLOUDY    66  57  72 S20G25    29.53F
$$

NDZ022-023-025-028>030-036>039-047>053-191100-
SOUTHEAST NORTH DAKOTA

CITY           SKY/WX    TMP DP  RH WIND       PRES   REMARKS
FARGO          CLOUDY    64  56  75 S22G30    29.71R
JAMESTOWN      CLOUDY    64  59  83 S15       29.62F
$$




USA.gov is the U.S. government's official web portal to all federal, state and local government web resources and services.